Terug naar catalogus

LUDI TANCE-4 01A

ActiefWetenschapGEO
NORAD 57624·PAYLOAD·🇨🇳 China

Gelanceerd Aug 12, 2023 vanaf Xichang Satellite Launch Center

Loading…

TLE

VersSource: Space-Track

Epoch: Sep 14, 2026, 15:42 UTC

1 57624U 23120A   26257.65417404 -.00000196  00000-0  00000-0 0  9992
2 57624  15.0481 191.7683 0003532  39.1840  87.6332  1.00277003 11447

Volg LUDI TANCE-4 01A in realtime met AllMySat

Download on the App Store